{"data":{"norad_id":59098,"intl_designator":"2024-043A","name":"HORACIO","alt_names":[],"object_type":"PAYLOAD","status":"ACTIVE","operator":null,"country":"SPN","launch_date":"2024-03-04","launch_site_code":"AFWTR","launch_vehicle":null,"mission":null,"orbit_class":"UNKNOWN","rcs_meters":null,"size_class":null,"mass_kg":null,"dimensions":null,"purposes":[],"wikipedia_slug":null,"has_3d_model":false,"image_url":null,"decayed_at":null,"tle_current":{"epoch":"2026-09-22T21:34:24.881376Z","epoch_age_seconds":47946,"freshness":"FRESH","line1":"1 59098U 24043A   26265.89889909  .00001313  00000+0  11377-3 0  9994","line2":"2 59098  97.8635  38.4027 0010687  57.0535 303.1714 14.98854314139304","mean_motion":14.98854314,"eccentricity":0.0010687,"inclination_deg":97.8635,"raan_deg":38.4027,"arg_perigee_deg":57.0535,"mean_anomaly_deg":303.1714,"bstar":0.00011377,"rev_number":13930,"period_min":96.073379950922,"perigee_km":563.0090269595,"apogee_km":577.86090467925,"semimajor_km":6948.5719658194,"source":"CELESTRAK","updated_at":"2026-09-23T09:00:19.172512Z"}}}